Location: Oberwangen
(47.4286°N, 8.9679°E)
Time: 14:20:17
(UTC+00:00)

Cosmos 1726 Rocket - Pass Details

Date: 20 June 2021
Orbit: 602 x 630 km, 82.5° (Epoch: 03 August)

Event Time Altitude Azimuth Distance (km) Brightness Sun altitude
Rises 21:17:54 0° 357° (N) 2,934 8.2 -13.5°
Reaches altitude 10° 21:20:17 10° 5° (N) 2,020 7.1 -13.7°
Maximum altitude 21:24:29 39° 74° (ENE) 951 4.4 -14.0°
Enters shadow 21:26:55 21° 131° (SE) 1,398 4.8 -14.2°
